Tracking 29799 objects as of 11-Oct-2024
HD Live streaming from Space Station
objects crossing your sky now

SL-6 R/B(2)

Track SL-6 R/B(2) now!
10-day predictions


NORAD ID: 16996
Int'l Code: 1986-075D
Perigee: 184.9 km
Apogee: 12,103.6 km
Inclination: 62.2 °
Period: 232.2 minutes
Semi major axis: 12515 km
RCS: 5.6254 m2 (large)
Launch date: October 3, 1986
Source: Commonwealth of Independent States (former USSR) (CIS)
Launch site: PLESETSK MISSILE AND SPACE COMPLEX (PKMTR)

Note: This is a ROCKET BODY
Your satellite tracking list
Your tracking list is empty




NASA's NSSDC Master Catalog

Two Line Element Set (TLE):
1 16996U 86075D   24284.70871541  .00076991 -11888-6  61852-3 0  9990
2 16996  62.2131 260.1841 4761644 309.4119  17.2149  6.20072043572225
Source of the keplerian elements: AFSPC